Zurück zum Katalog

COSMOS 1066

AktivMilitärPO
NORAD 11165·PAYLOAD·🇷🇺 Russia

Gestartet Dec 23, 1978 von Plesetsk Cosmodrome

Loading…

Nächste Überflüge (nächste 24 Stunden)

TLE

AktuellSource: Space-Track

Epoche: Sep 14, 2026, 04:10 UTC

1 11165U 78121A   26257.17376836  .00000045  00000-0  17651-4 0  9999
2 11165  81.2399 168.7761 0048973 202.5335 157.3687 14.12116891973881

Verfolge COSMOS 1066 in Echtzeit mit AllMySat

Download on the App Store